Hourly Data Report for October 14, 2003

SHERBROOKE A
QUEBEC

45°26'00.000" N
71°41'00.000" W
241.40 m
7028124
71610
YSC

Download Data

Hourly Data (October 2003)
Hourly Data Report for October 14, 2003
TIME
LST
Temp Definition
°C
Dew Point Definition
°C
Rel Hum Definition
%
Precip. Amount Definition
mm

Wind Dir Definition
10's deg

Wind Spd Definition
km/h
Visibility Definition
km
Stn Press Definition
kPa
Hmdx Definition


Wind Chill Definition


Weather Definition


00:00 0.6 -0.4 93   10 4 15.0 98.56      
01:00 -0.2 -1.3 92     0 9.7 98.58      
02:00 -0.9 -2.1 92   9 4 11.3 98.60   -2  
03:00 0.3 -0.7 93     0 15.0 98.62      
04:00 0.6 -0.3 94   9 6 15.0 98.63      
05:00 0.0 -1.1 92   9 4 12.9 98.64   -1  
06:00 0.0 -0.9 94     0 12.9 98.66      
07:00 1.7 0.7 93   7 4 24.1 98.66     Clear
08:00 6.2 3.7 84   10 4 24.1 98.62     Mainly Clear
09:00 10.6 6.0 73   12 7 24.1 98.55     Clear
10:00 14.9 7.5 61   24 4 24.1 98.47     Clear
11:00 17.6 4.7 42   17 9 24.1 98.40     Mainly Clear
12:00 18.7 3.6 37   17 13 24.1 98.25     Mainly Clear
13:00 20.0 3.9 35   17 15 24.1 98.13     Mainly Clear
14:00 18.8 2.5 34   16 15 24.1 98.06     Mainly Clear
15:00 18.3 4.3 39   16 11 24.1 97.96     Mostly Cloudy
16:00 17.0 4.1 42   15 11 24.1 97.90     Mostly Cloudy
17:00 15.4 3.7 46   13 19 15.0 97.83      
18:00 12.9 3.9 54   13 11 15.0 97.76      
19:00 13.0 4.3 55   13 22 15.0 97.68      
20:00 11.9 4.0 58   13 20 15.0 97.58      
21:00 11.1 3.0 57   13 11 15.0 97.49      
22:00 11.0 1.9 53   14 22 15.0 97.41      
23:00 10.4 3.4 62   14 26 15.0 97.31      

Notes on Data Quality.

Legend

  • E = Estimated
  • M = Missing
  • NA = Not Available*
  • [empty] = Indicates an unobserved value
Date modified: